THORAD AGENA D DEB, 9666

Orbit data source: Space-Track

THORAD AGENA D DEB, 9666 is space debris in SSO originally from a launch on Wed, 08 Apr 1970 UTC launched from the Air Force Western Test Range (AFWTR). Debris objects in space refer to the collection of defunct objects orbiting the Earth. Examples of debris include non-operational satellites, rocket bodies, and fragments generated from explosions, collisions, or faulty payload assembly.

Loading next visibility...
Identifier
9666, 1970-025NK
Orbit
SSO
Country
Flag of USUS
Related business
Manufacturer
Unknown
Mission
Spacecraft
Bus & Motor
Unknown
Mass
Unknown
Launch date (UTC)
1970-04-08 (56 years ago)
Launch vehicle
Unknown
Launch site
Air Force Western Test Range (AFWTR)
Object type
Payload
Rocket body
Debris
Shape & HBR
Unknown shape, 0.070 m
Radar Cross Section
Medium (>0.1 m² and <1 m²)

Expand to show TLE details & history
Last TLE update: 11 hours ago

TLE from 11 hours ago
0 THORAD AGENA D DEB
1 09666U 70025NK  26267.12769770  .00001703  00000-0  19108-2 0  9995
2 09666  99.2731 227.3554 0114733  47.1511  16.5932 13.69563818766416
Epoch: 2026-09-24T03:03Z
TLE epoch observation values (Epoch: 2026-09-24T03:03:53.081Z)
Latitude
62.71391°
Longitude
160.06247°
Altitude
930.766 km
Speed
7.433 km/s
True Right ascension
13h 56m 00s
True Declination
62° 34' 37"
Sunlit
Object was in daylight at epoch
Visualization orbit readout
Latitude
Unknown
Longitude
Unknown
Altitude
Unknown
Speed
Unknown
Apparent Right ascension
Unknown
Apparent Declination
Unknown
Sunlit
N/A
Visualization observer readout
Local Sidereal Time
07:27:21
Azimuth
Unknown
Elevation
Unknown
Doppler factor
Unknown
Orbital elements
Apogee altitude
1,083.024 km
Perigee altitude
913.757 km
Semi-major axis
7,376.527 km
Eccentricity
0.01147
Inclination
99.2731°
RAAN
227.3554°
Arg. of periapsis
47.1511°
True anomaly
16.97388°
Mean anomaly
16.5932°
Eccentric anomaly
16.78301°
Mean motion
3.42583 °/min
Orbital period
105.08 mins
BSTAR
0.0019108

Documentation

Showing up to 5 results
|